{"data":{"norad_id":40032,"intl_designator":"2014-033Y","name":"QB50P2","alt_names":[],"object_type":"PAYLOAD","status":"ACTIVE","operator":null,"country":"BEL","launch_date":"2014-06-19","launch_site_code":"DLS","launch_vehicle":null,"mission":null,"orbit_class":"UNKNOWN","rcs_meters":0.063,"size_class":null,"mass_kg":null,"dimensions":null,"purposes":["tech_demo"],"wikipedia_slug":null,"has_3d_model":false,"image_url":null,"decayed_at":null,"tle_current":{"epoch":"2026-09-19T23:10:46.526592Z","epoch_age_seconds":60624,"freshness":"FRESH","line1":"1 40032U 14033Y   26262.96581628  .00004654  00000+0  24451-3 0  9990","line2":"2 40032  98.0815 265.8585 0006591 199.5801 160.5178 15.16232050667029","mean_motion":15.1623205,"eccentricity":0.0006591,"inclination_deg":98.0815,"raan_deg":265.8585,"arg_perigee_deg":199.5801,"mean_anomaly_deg":160.5178,"bstar":0.00024451,"rev_number":66702,"period_min":94.972270240561,"perigee_km":512.6959512342,"apogee_km":521.78543811132,"semimajor_km":6895.3776946728,"source":"CELESTRAK","updated_at":"2026-09-20T09:00:48.025077Z"}}}